Year,Month,Day,Hour,Minute,Value (Times are PST for temperature in C)
2018,09,18,00,00,8.90
2018,09,18,00,01,8.90
2018,09,18,00,02,8.90
2018,09,18,00,03,8.90
2018,09,18,00,04,8.90
2018,09,18,00,05,8.90
2018,09,18,00,06,8.90
2018,09,18,00,07,8.80
2018,09,18,00,08,8.80
2018,09,18,00,09,8.80
2018,09,18,00,10,8.80
2018,09,18,00,11,8.80
2018,09,18,00,12,8.80
2018,09,18,00,13,8.80
2018,09,18,00,14,8.80
2018,09,18,00,15,8.70
2018,09,18,00,16,8.70
2018,09,18,00,17,8.70
2018,09,18,00,18,8.70
2018,09,18,00,19,8.70
2018,09,18,00,20,8.70
2018,09,18,00,21,8.70
2018,09,18,00,22,8.70
2018,09,18,00,23,8.60
2018,09,18,00,24,8.60
2018,09,18,00,25,8.60
2018,09,18,00,26,8.60
2018,09,18,00,27,8.60
2018,09,18,00,28,8.60
2018,09,18,00,29,8.50
2018,09,18,00,30,8.50
2018,09,18,00,31,8.50
2018,09,18,00,32,8.50
2018,09,18,00,33,8.50
2018,09,18,00,34,8.50
2018,09,18,00,35,8.40
2018,09,18,00,36,8.40
2018,09,18,00,37,8.40
2018,09,18,00,38,8.40
2018,09,18,00,39,8.40
2018,09,18,00,40,8.40
2018,09,18,00,41,8.40
2018,09,18,00,42,8.40
2018,09,18,00,43,8.40
2018,09,18,00,44,8.40
2018,09,18,00,45,8.40
2018,09,18,00,46,8.40
2018,09,18,00,47,8.40
2018,09,18,00,48,8.40
2018,09,18,00,49,8.40
2018,09,18,00,50,8.30
2018,09,18,00,51,8.30
2018,09,18,00,52,8.30
2018,09,18,00,53,8.30
2018,09,18,00,54,8.30
2018,09,18,00,55,8.30
2018,09,18,00,56,8.20
2018,09,18,00,57,8.20
2018,09,18,00,58,8.20
2018,09,18,00,59,8.20
2018,09,18,01,00,8.20
2018,09,18,01,01,8.20
2018,09,18,01,02,8.10
2018,09,18,01,03,8.10
2018,09,18,01,04,8.10
2018,09,18,01,05,8.10
2018,09,18,01,06,8.10
2018,09,18,01,07,8.00
2018,09,18,01,08,8.00
2018,09,18,01,09,8.00
2018,09,18,01,10,8.00
2018,09,18,01,11,8.00
2018,09,18,01,12,8.00
2018,09,18,01,13,8.00
2018,09,18,01,14,8.00
2018,09,18,01,15,8.00
2018,09,18,01,16,7.90
2018,09,18,01,17,7.90
2018,09,18,01,18,7.90
2018,09,18,01,19,7.90
2018,09,18,01,20,7.90
2018,09,18,01,21,8.00
2018,09,18,01,22,8.00
2018,09,18,01,23,8.00
2018,09,18,01,24,7.90
2018,09,18,01,25,7.90
2018,09,18,01,26,7.90
2018,09,18,01,27,7.90
2018,09,18,01,28,7.90
2018,09,18,01,29,7.90
2018,09,18,01,30,7.90
2018,09,18,01,31,7.90
2018,09,18,01,32,7.90
2018,09,18,01,33,7.90
2018,09,18,01,34,7.80
2018,09,18,01,35,7.80
2018,09,18,01,36,7.80
2018,09,18,01,37,7.80
2018,09,18,01,38,7.80
2018,09,18,01,39,7.80
2018,09,18,01,40,7.80
2018,09,18,01,41,7.80
2018,09,18,01,42,7.80
2018,09,18,01,43,7.70
2018,09,18,01,44,7.70
2018,09,18,01,45,7.70
2018,09,18,01,46,7.70
2018,09,18,01,47,7.70
2018,09,18,01,48,7.60
2018,09,18,01,49,7.60
2018,09,18,01,50,7.60
2018,09,18,01,51,7.60
2018,09,18,01,52,7.60
2018,09,18,01,53,7.60
2018,09,18,01,54,7.50
2018,09,18,01,55,7.50
2018,09,18,01,56,7.50
2018,09,18,01,57,7.50
2018,09,18,01,58,7.50
2018,09,18,01,59,7.50
2018,09,18,02,00,7.50
2018,09,18,02,01,7.50
2018,09,18,02,02,7.50
2018,09,18,02,03,7.50
2018,09,18,02,04,7.40
2018,09,18,02,05,7.40
2018,09,18,02,06,7.40
2018,09,18,02,07,7.40
2018,09,18,02,08,7.40
2018,09,18,02,09,7.40
2018,09,18,02,10,7.40
2018,09,18,02,11,7.40
2018,09,18,02,12,7.40
2018,09,18,02,13,7.40
2018,09,18,02,14,7.30
2018,09,18,02,15,7.30
2018,09,18,02,16,7.30
2018,09,18,02,17,7.30
2018,09,18,02,18,7.30
2018,09,18,02,19,7.30
2018,09,18,02,20,7.30
2018,09,18,02,21,7.30
2018,09,18,02,22,7.30
2018,09,18,02,23,7.30
2018,09,18,02,24,7.30
2018,09,18,02,25,7.30
2018,09,18,02,26,7.30
2018,09,18,02,27,7.30
2018,09,18,02,28,7.30
2018,09,18,02,29,7.30
2018,09,18,02,30,7.30
2018,09,18,02,31,7.30
2018,09,18,02,32,7.20
2018,09,18,02,33,7.20
2018,09,18,02,34,7.20
2018,09,18,02,35,7.20
2018,09,18,02,36,7.20
2018,09,18,02,37,7.20
2018,09,18,02,38,7.20
2018,09,18,02,39,7.10
2018,09,18,02,40,7.10
2018,09,18,02,41,7.10
2018,09,18,02,42,7.10
2018,09,18,02,43,7.10
2018,09,18,02,44,7.10
2018,09,18,02,45,7.10
2018,09,18,02,46,7.10
2018,09,18,02,47,7.10
2018,09,18,02,48,7.00
2018,09,18,02,49,7.00
2018,09,18,02,50,7.00
2018,09,18,02,51,7.00
2018,09,18,02,52,6.90
2018,09,18,02,53,6.90
2018,09,18,02,54,6.90
2018,09,18,02,55,6.90
2018,09,18,02,56,6.90
2018,09,18,02,57,6.90
2018,09,18,02,58,6.90
2018,09,18,02,59,6.90
2018,09,18,03,00,6.90
2018,09,18,03,01,6.90
2018,09,18,03,02,6.90
2018,09,18,03,03,6.90
2018,09,18,03,04,6.90
2018,09,18,03,05,6.90
2018,09,18,03,06,6.80
2018,09,18,03,07,6.80
2018,09,18,03,08,6.80
2018,09,18,03,09,6.80
2018,09,18,03,10,6.80
2018,09,18,03,11,6.80
2018,09,18,03,12,6.80
2018,09,18,03,13,6.80
2018,09,18,03,14,6.80
2018,09,18,03,15,6.70
2018,09,18,03,16,6.70
2018,09,18,03,17,6.70
2018,09,18,03,18,6.70
2018,09,18,03,19,6.70
2018,09,18,03,20,6.70
2018,09,18,03,21,6.70
2018,09,18,03,22,6.60
2018,09,18,03,23,6.60
2018,09,18,03,24,6.60
2018,09,18,03,25,6.60
2018,09,18,03,26,6.60
2018,09,18,03,27,6.60
2018,09,18,03,28,6.60
2018,09,18,03,29,6.60
2018,09,18,03,30,6.60
2018,09,18,03,31,6.60
2018,09,18,03,32,6.60
2018,09,18,03,33,6.50
2018,09,18,03,34,6.50
2018,09,18,03,35,6.50
2018,09,18,03,36,6.40
2018,09,18,03,37,6.40
2018,09,18,03,38,6.40
2018,09,18,03,39,6.40
2018,09,18,03,40,6.40
2018,09,18,03,41,6.40
2018,09,18,03,42,6.40
2018,09,18,03,43,6.40
2018,09,18,03,44,6.40
2018,09,18,03,45,6.40
2018,09,18,03,46,6.40
2018,09,18,03,47,6.40
2018,09,18,03,48,6.30
2018,09,18,03,49,6.30
2018,09,18,03,50,6.30
2018,09,18,03,51,6.30
2018,09,18,03,52,6.30
2018,09,18,03,53,6.30
2018,09,18,03,54,6.30
2018,09,18,03,55,6.30
2018,09,18,03,56,6.30
2018,09,18,03,57,6.20
2018,09,18,03,58,6.20
2018,09,18,03,59,6.20
2018,09,18,04,00,6.20
2018,09,18,04,01,6.20
2018,09,18,04,02,6.20
2018,09,18,04,03,6.20
2018,09,18,04,04,6.20
2018,09,18,04,05,6.20
2018,09,18,04,06,6.20
2018,09,18,04,07,6.20
2018,09,18,04,08,6.20
2018,09,18,04,09,6.30
2018,09,18,04,10,6.30
2018,09,18,04,11,6.30
2018,09,18,04,12,6.30
2018,09,18,04,13,6.30
2018,09,18,04,14,6.30
2018,09,18,04,15,6.30
2018,09,18,04,16,6.30
2018,09,18,04,17,6.30
2018,09,18,04,18,6.30
2018,09,18,04,19,6.30
2018,09,18,04,20,6.30
2018,09,18,04,21,6.30
2018,09,18,04,22,6.30
2018,09,18,04,23,6.30
2018,09,18,04,24,6.30
2018,09,18,04,25,6.30
2018,09,18,04,26,6.30
2018,09,18,04,27,6.20
2018,09,18,04,28,6.20
2018,09,18,04,29,6.20
2018,09,18,04,30,6.20
2018,09,18,04,31,6.20
2018,09,18,04,32,6.10
2018,09,18,04,33,6.10
2018,09,18,04,34,6.10
2018,09,18,04,35,6.00
2018,09,18,04,36,6.00
2018,09,18,04,37,6.00
2018,09,18,04,38,6.00
2018,09,18,04,39,5.90
2018,09,18,04,40,5.90
2018,09,18,04,41,5.90
2018,09,18,04,42,5.90
2018,09,18,04,43,5.90
2018,09,18,04,44,5.90
2018,09,18,04,45,5.90
2018,09,18,04,46,5.90
2018,09,18,04,47,5.90
2018,09,18,04,48,5.80
2018,09,18,04,49,5.80
2018,09,18,04,50,5.80
2018,09,18,04,51,5.80
2018,09,18,04,52,5.80
2018,09,18,04,53,5.80
2018,09,18,04,54,5.80
2018,09,18,04,55,5.80
2018,09,18,04,56,5.80
2018,09,18,04,57,5.80
2018,09,18,04,58,5.80
2018,09,18,04,59,5.80
2018,09,18,05,00,5.80
2018,09,18,05,01,5.80
2018,09,18,05,02,5.80
2018,09,18,05,03,5.80
2018,09,18,05,04,5.80
2018,09,18,05,05,5.70
2018,09,18,05,06,5.70
2018,09,18,05,07,5.70
2018,09,18,05,08,5.70
2018,09,18,05,09,5.70
2018,09,18,05,10,5.70
2018,09,18,05,11,5.70
2018,09,18,05,12,5.70
2018,09,18,05,13,5.70
2018,09,18,05,14,5.60
2018,09,18,05,15,5.60
2018,09,18,05,16,5.60
2018,09,18,05,17,5.60
2018,09,18,05,18,5.60
2018,09,18,05,19,5.60
2018,09,18,05,20,5.50
2018,09,18,05,21,5.50
2018,09,18,05,22,5.50
2018,09,18,05,23,5.50
2018,09,18,05,24,5.50
2018,09,18,05,25,5.40
2018,09,18,05,26,5.40
2018,09,18,05,27,5.40
2018,09,18,05,28,5.40
2018,09,18,05,29,5.40
2018,09,18,05,30,5.40
2018,09,18,05,31,5.40
2018,09,18,05,32,5.40
2018,09,18,05,33,5.40
2018,09,18,05,34,5.40
2018,09,18,05,35,5.40
2018,09,18,05,36,5.30
2018,09,18,05,37,5.30
2018,09,18,05,38,5.30
2018,09,18,05,39,5.30
2018,09,18,05,40,5.30
2018,09,18,05,41,5.30
2018,09,18,05,42,5.30
2018,09,18,05,43,5.30
2018,09,18,05,44,5.30
2018,09,18,05,45,5.30
2018,09,18,05,46,5.30
2018,09,18,05,47,5.30
2018,09,18,05,48,5.30
2018,09,18,05,49,5.30
2018,09,18,05,50,5.30
2018,09,18,05,51,5.30
2018,09,18,05,52,5.30
2018,09,18,05,53,5.30
2018,09,18,05,54,5.30
2018,09,18,05,55,5.30
2018,09,18,05,56,5.30
2018,09,18,05,57,5.30
2018,09,18,05,58,5.30
2018,09,18,05,59,5.30
2018,09,18,06,00,5.30
2018,09,18,06,01,5.30
2018,09,18,06,02,5.20
2018,09,18,06,03,5.20
2018,09,18,06,04,5.20
2018,09,18,06,05,5.20
2018,09,18,06,06,5.20
2018,09,18,06,07,5.10
2018,09,18,06,08,5.10
2018,09,18,06,09,5.10
2018,09,18,06,10,5.10
2018,09,18,06,11,5.10
2018,09,18,06,12,5.10
2018,09,18,06,13,5.10
2018,09,18,06,14,5.10
2018,09,18,06,15,5.10
2018,09,18,06,16,5.10
2018,09,18,06,17,5.10
2018,09,18,06,18,5.10
2018,09,18,06,19,5.10
2018,09,18,06,20,5.10
2018,09,18,06,21,5.10
2018,09,18,06,22,5.10
2018,09,18,06,23,5.10
2018,09,18,06,24,5.10
2018,09,18,06,25,5.10
2018,09,18,06,26,5.10
2018,09,18,06,27,5.10
2018,09,18,06,28,5.10
2018,09,18,06,29,5.10
2018,09,18,06,30,5.10
2018,09,18,06,31,5.10
2018,09,18,06,32,5.10
2018,09,18,06,33,5.10
2018,09,18,06,34,5.00
2018,09,18,06,35,5.00
2018,09,18,06,36,4.90
2018,09,18,06,37,4.90
2018,09,18,06,38,4.90
2018,09,18,06,39,4.90
2018,09,18,06,40,4.90
2018,09,18,06,41,4.90
2018,09,18,06,42,4.90
2018,09,18,06,43,4.90
2018,09,18,06,44,4.80
2018,09,18,06,45,4.80
2018,09,18,06,46,4.80
2018,09,18,06,47,4.80
2018,09,18,06,48,4.80
2018,09,18,06,49,4.80
2018,09,18,06,50,4.80
2018,09,18,06,51,4.80
2018,09,18,06,52,4.70
2018,09,18,06,53,4.70
2018,09,18,06,54,4.70
2018,09,18,06,55,4.70
2018,09,18,06,56,4.70
2018,09,18,06,57,4.70
2018,09,18,06,58,4.70
2018,09,18,06,59,4.70
2018,09,18,07,00,4.70
2018,09,18,07,01,4.70
2018,09,18,07,02,4.70
2018,09,18,07,03,4.70
2018,09,18,07,04,4.70
2018,09,18,07,05,4.70
2018,09,18,07,06,4.60
2018,09,18,07,07,4.60
2018,09,18,07,08,4.60
2018,09,18,07,09,4.60
2018,09,18,07,10,4.60
2018,09,18,07,11,4.60
2018,09,18,07,12,4.60
2018,09,18,07,13,4.60
2018,09,18,07,14,4.60
2018,09,18,07,15,4.60
2018,09,18,07,16,4.60
2018,09,18,07,17,4.60
2018,09,18,07,18,4.70
2018,09,18,07,19,4.70
2018,09,18,07,20,4.70
2018,09,18,07,21,4.70
2018,09,18,07,22,4.70
2018,09,18,07,23,4.80
2018,09,18,07,24,4.80
2018,09,18,07,25,4.80
2018,09,18,07,26,4.80
2018,09,18,07,27,4.80
2018,09,18,07,28,4.90
2018,09,18,07,29,4.90
2018,09,18,07,30,4.90
2018,09,18,07,31,4.90
2018,09,18,07,32,4.90
2018,09,18,07,33,4.90
2018,09,18,07,34,4.90
2018,09,18,07,35,4.90
2018,09,18,07,36,4.90
2018,09,18,07,37,4.90
2018,09,18,07,38,4.90
2018,09,18,07,39,5.00
2018,09,18,07,40,5.00
2018,09,18,07,41,5.00
2018,09,18,07,42,5.00
2018,09,18,07,43,5.00
2018,09,18,07,44,5.00
2018,09,18,07,45,5.00
2018,09,18,07,46,5.10
2018,09,18,07,47,5.10
2018,09,18,07,48,5.10
2018,09,18,07,49,5.20
2018,09,18,07,50,5.20
2018,09,18,07,51,5.20
2018,09,18,07,52,5.20
2018,09,18,07,53,5.30
2018,09,18,07,54,5.30
2018,09,18,07,55,5.40
2018,09,18,07,56,5.40
2018,09,18,07,57,5.40
2018,09,18,07,58,5.50
2018,09,18,07,59,5.50
2018,09,18,08,00,5.50
2018,09,18,08,01,5.60
2018,09,18,08,02,5.60
2018,09,18,08,03,5.70
2018,09,18,08,04,5.70
2018,09,18,08,05,5.70
2018,09,18,08,06,5.80
2018,09,18,08,07,5.80
2018,09,18,08,08,5.80
2018,09,18,08,09,5.90
2018,09,18,08,10,6.00
2018,09,18,08,11,6.00
2018,09,18,08,12,6.00
2018,09,18,08,13,6.10
2018,09,18,08,14,6.10
2018,09,18,08,15,6.20
2018,09,18,08,16,6.20
2018,09,18,08,17,6.20
2018,09,18,08,18,6.30
2018,09,18,08,19,6.30
2018,09,18,08,20,6.40
2018,09,18,08,21,6.40
2018,09,18,08,22,6.50
2018,09,18,08,23,6.50
2018,09,18,08,24,6.60
2018,09,18,08,25,6.60
2018,09,18,08,26,6.70
2018,09,18,08,27,6.80
2018,09,18,08,28,6.80
2018,09,18,08,29,6.80
2018,09,18,08,30,6.90
2018,09,18,08,31,6.90
2018,09,18,08,32,7.00
2018,09,18,08,33,7.00
2018,09,18,08,34,7.10
2018,09,18,08,35,7.10
2018,09,18,08,36,7.20
2018,09,18,08,37,7.20
2018,09,18,08,38,7.30
2018,09,18,08,39,7.30
2018,09,18,08,40,7.30
2018,09,18,08,41,7.40
2018,09,18,08,42,7.40
2018,09,18,08,43,7.40
2018,09,18,08,44,7.40
2018,09,18,08,45,7.50
2018,09,18,08,46,7.50
2018,09,18,08,47,7.60
2018,09,18,08,48,7.60
2018,09,18,08,49,7.60
2018,09,18,08,50,7.70
2018,09,18,08,51,7.70
2018,09,18,08,52,7.70
2018,09,18,08,53,7.80
2018,09,18,08,54,7.80
2018,09,18,08,55,7.90
2018,09,18,08,56,7.90
2018,09,18,08,57,8.00
2018,09,18,08,58,8.00
2018,09,18,08,59,8.10
2018,09,18,09,00,8.20
2018,09,18,09,01,8.30
2018,09,18,09,02,8.40
2018,09,18,09,03,8.40
2018,09,18,09,04,8.50
2018,09,18,09,05,8.60
2018,09,18,09,06,8.70
2018,09,18,09,07,8.80
2018,09,18,09,08,8.90
2018,09,18,09,09,9.10
2018,09,18,09,10,9.20
2018,09,18,09,11,9.30
2018,09,18,09,12,9.40
2018,09,18,09,13,9.40
2018,09,18,09,14,9.50
2018,09,18,09,15,9.60
2018,09,18,09,16,9.60
2018,09,18,09,17,9.60
2018,09,18,09,18,9.70
2018,09,18,09,19,9.70
2018,09,18,09,20,9.70
2018,09,18,09,21,9.80
2018,09,18,09,22,9.80
2018,09,18,09,23,9.90
2018,09,18,09,24,9.90
2018,09,18,09,25,10.00
2018,09,18,09,26,10.10
2018,09,18,09,27,10.10
2018,09,18,09,28,10.20
2018,09,18,09,29,10.20
2018,09,18,09,30,10.30
2018,09,18,09,31,10.30
2018,09,18,09,32,10.40
2018,09,18,09,33,10.40
2018,09,18,09,34,10.40
2018,09,18,09,35,10.40
2018,09,18,09,36,10.40
2018,09,18,09,37,10.50
2018,09,18,09,38,10.50
2018,09,18,09,39,10.50
2018,09,18,09,40,10.60
2018,09,18,09,41,10.60
2018,09,18,09,42,10.70
2018,09,18,09,43,10.70
2018,09,18,09,44,10.70
2018,09,18,09,45,10.70
2018,09,18,09,46,10.80
2018,09,18,09,47,10.80
2018,09,18,09,48,10.80
2018,09,18,09,49,10.90
2018,09,18,09,50,10.90
2018,09,18,09,51,10.90
2018,09,18,09,52,11.00
2018,09,18,09,53,11.10
2018,09,18,09,54,11.10
2018,09,18,09,55,11.10
2018,09,18,09,56,11.20
2018,09,18,09,57,11.20
2018,09,18,09,58,11.30
2018,09,18,09,59,11.30
2018,09,18,10,00,11.30
2018,09,18,10,01,11.40
2018,09,18,10,02,11.40
2018,09,18,10,03,11.50
2018,09,18,10,04,11.50
2018,09,18,10,05,11.50
2018,09,18,10,06,11.50
2018,09,18,10,07,11.50
2018,09,18,10,08,11.50
2018,09,18,10,09,11.60
2018,09,18,10,10,11.60
2018,09,18,10,11,11.60
2018,09,18,10,12,11.60
2018,09,18,10,13,11.70
2018,09,18,10,14,11.70
2018,09,18,10,15,11.70
2018,09,18,10,16,11.80
2018,09,18,10,17,11.80
2018,09,18,10,18,11.80
2018,09,18,10,19,11.80
2018,09,18,10,20,11.80
2018,09,18,10,21,11.90
2018,09,18,10,22,12.00
2018,09,18,10,23,12.00
2018,09,18,10,24,12.10
2018,09,18,10,25,12.20
2018,09,18,10,26,12.20
2018,09,18,10,27,12.30
2018,09,18,10,28,12.30
2018,09,18,10,29,12.30
2018,09,18,10,30,12.40
2018,09,18,10,31,12.50
2018,09,18,10,32,12.60
2018,09,18,10,33,12.70
2018,09,18,10,34,12.80
2018,09,18,10,35,12.80
2018,09,18,10,36,12.90
2018,09,18,10,37,13.00
2018,09,18,10,38,13.00
2018,09,18,10,39,13.10
2018,09,18,10,40,13.20
2018,09,18,10,41,13.30
2018,09,18,10,42,13.30
2018,09,18,10,43,13.30
2018,09,18,10,44,13.30
2018,09,18,10,45,13.20
2018,09,18,10,46,13.20
2018,09,18,10,47,13.20
2018,09,18,10,48,13.20
2018,09,18,10,49,13.20
2018,09,18,10,50,13.20
2018,09,18,10,51,13.30
2018,09,18,10,52,13.30
2018,09,18,10,53,13.30
2018,09,18,10,54,13.40
2018,09,18,10,55,13.50
2018,09,18,10,56,13.60
2018,09,18,10,57,13.60
2018,09,18,10,58,13.70
2018,09,18,10,59,13.80
2018,09,18,11,00,13.80
2018,09,18,11,01,13.90
2018,09,18,11,02,14.00
2018,09,18,11,03,14.00
2018,09,18,11,04,14.00
2018,09,18,11,05,14.00
2018,09,18,11,06,14.00
2018,09,18,11,07,14.00
2018,09,18,11,08,14.00
2018,09,18,11,09,14.00
2018,09,18,11,10,14.10
2018,09,18,11,11,14.20
2018,09,18,11,12,14.20
2018,09,18,11,13,14.30
2018,09,18,11,14,14.30
2018,09,18,11,15,14.30
2018,09,18,11,16,14.30
2018,09,18,11,17,14.40
2018,09,18,11,18,14.40
2018,09,18,11,19,14.50
2018,09,18,11,20,14.50
2018,09,18,11,21,14.60
2018,09,18,11,22,14.60
2018,09,18,11,23,14.70
2018,09,18,11,24,14.80
2018,09,18,11,25,14.80
2018,09,18,11,26,14.80
2018,09,18,11,27,14.80
2018,09,18,11,28,14.80
2018,09,18,11,29,14.80
2018,09,18,11,30,14.70
2018,09,18,11,31,14.70
2018,09,18,11,32,14.80
2018,09,18,11,33,14.80
2018,09,18,11,34,14.80
2018,09,18,11,35,14.80
2018,09,18,11,36,14.80
2018,09,18,11,37,14.70
2018,09,18,11,38,14.70
2018,09,18,11,39,14.70
2018,09,18,11,40,14.60
2018,09,18,11,41,14.60
2018,09,18,11,42,14.60
2018,09,18,11,43,14.50
2018,09,18,11,44,14.50
2018,09,18,11,45,14.60
2018,09,18,11,46,14.60
2018,09,18,11,47,14.60
2018,09,18,11,48,14.50
2018,09,18,11,49,14.50
2018,09,18,11,50,14.40
2018,09,18,11,51,14.40
2018,09,18,11,52,14.40
2018,09,18,11,53,14.40
2018,09,18,11,54,14.40
2018,09,18,11,55,14.50
2018,09,18,11,56,14.50
2018,09,18,11,57,14.50
2018,09,18,11,58,14.50
2018,09,18,11,59,14.50
2018,09,18,12,00,14.50
2018,09,18,12,01,14.50
2018,09,18,12,02,14.50
2018,09,18,12,03,14.50
2018,09,18,12,04,14.50
2018,09,18,12,05,14.50
2018,09,18,12,06,14.50
2018,09,18,12,07,14.40
2018,09,18,12,08,14.40
2018,09,18,12,09,14.40
2018,09,18,12,10,14.40
2018,09,18,12,11,14.40
2018,09,18,12,12,14.40
2018,09,18,12,13,14.40
2018,09,18,12,14,14.40
2018,09,18,12,15,14.40
2018,09,18,12,16,14.50
2018,09,18,12,17,14.50
2018,09,18,12,18,14.50
2018,09,18,12,19,14.50
2018,09,18,12,20,14.50
2018,09,18,12,21,14.60
2018,09,18,12,22,14.60
2018,09,18,12,23,14.50
2018,09,18,12,24,14.50
2018,09,18,12,25,14.50
2018,09,18,12,26,14.50
2018,09,18,12,27,14.60
2018,09,18,12,28,14.60
2018,09,18,12,29,14.60
2018,09,18,12,30,14.60
2018,09,18,12,31,14.60
2018,09,18,12,32,14.60
2018,09,18,12,33,14.60
2018,09,18,12,34,14.60
2018,09,18,12,35,14.60
2018,09,18,12,36,14.60
2018,09,18,12,37,14.50
2018,09,18,12,38,14.50
2018,09,18,12,39,14.40
2018,09,18,12,40,14.40
2018,09,18,12,41,14.40
2018,09,18,12,42,14.30
2018,09,18,12,43,14.30
2018,09,18,12,44,14.40
2018,09,18,12,45,14.40
2018,09,18,12,46,14.50
2018,09,18,12,47,14.50
2018,09,18,12,48,14.50
2018,09,18,12,49,14.50
2018,09,18,12,50,14.60
2018,09,18,12,51,14.60
2018,09,18,12,52,14.60
2018,09,18,12,53,14.60
2018,09,18,12,54,14.60
2018,09,18,12,55,14.70
2018,09,18,12,56,14.70
2018,09,18,12,57,14.70
2018,09,18,12,58,14.70
2018,09,18,12,59,14.80
2018,09,18,13,00,14.80
2018,09,18,13,01,14.70
2018,09,18,13,02,14.80
2018,09,18,13,03,14.80
2018,09,18,13,04,14.80
2018,09,18,13,05,14.90
2018,09,18,13,06,14.90
2018,09,18,13,07,14.90
2018,09,18,13,08,14.90
2018,09,18,13,09,14.80
2018,09,18,13,10,14.80
2018,09,18,13,11,14.80
2018,09,18,13,12,14.80
2018,09,18,13,13,14.80
2018,09,18,13,14,14.80
2018,09,18,13,15,14.80
2018,09,18,13,16,14.80
2018,09,18,13,17,14.80
2018,09,18,13,18,14.70
2018,09,18,13,19,14.70
2018,09,18,13,20,14.70
2018,09,18,13,21,14.70
2018,09,18,13,22,14.80
2018,09,18,13,23,14.80
2018,09,18,13,24,14.80
2018,09,18,13,25,14.80
2018,09,18,13,26,14.70
2018,09,18,13,27,14.70
2018,09,18,13,28,14.70
2018,09,18,13,29,14.80
2018,09,18,13,30,14.80
2018,09,18,13,31,14.80
2018,09,18,13,32,14.80
2018,09,18,13,33,14.80
2018,09,18,13,34,14.80
2018,09,18,13,35,14.80
2018,09,18,13,36,14.80
2018,09,18,13,37,14.80
2018,09,18,13,38,14.90
2018,09,18,13,39,14.90
2018,09,18,13,40,15.00
2018,09,18,13,41,15.00
2018,09,18,13,42,15.00
2018,09,18,13,43,15.10
2018,09,18,13,44,15.10
2018,09,18,13,45,15.20
2018,09,18,13,46,15.30
2018,09,18,13,47,15.30
2018,09,18,13,48,15.40
2018,09,18,13,49,15.40
2018,09,18,13,50,15.50
2018,09,18,13,51,15.50
2018,09,18,13,52,15.50
2018,09,18,13,53,15.50
2018,09,18,13,54,15.60
2018,09,18,13,55,15.60
2018,09,18,13,56,15.60
2018,09,18,13,57,15.70
2018,09,18,13,58,15.70
2018,09,18,13,59,15.70
2018,09,18,14,00,15.70
2018,09,18,14,01,15.70
2018,09,18,14,02,15.80
2018,09,18,14,03,15.80
2018,09,18,14,04,15.80
2018,09,18,14,05,15.80
2018,09,18,14,06,15.80
2018,09,18,14,07,15.80
2018,09,18,14,08,15.80
2018,09,18,14,09,15.70
2018,09,18,14,10,15.70
2018,09,18,14,11,15.70
2018,09,18,14,12,15.60
2018,09,18,14,13,15.60
2018,09,18,14,14,15.50
2018,09,18,14,15,15.50
2018,09,18,14,16,15.40
2018,09,18,14,17,15.40
2018,09,18,14,18,15.40
2018,09,18,14,19,15.40
2018,09,18,14,20,15.40
2018,09,18,14,21,15.50
2018,09,18,14,22,15.50
2018,09,18,14,23,15.60
2018,09,18,14,24,15.60
2018,09,18,14,25,15.50
2018,09,18,14,26,15.50
2018,09,18,14,27,15.60
2018,09,18,14,28,15.60
2018,09,18,14,29,15.60
2018,09,18,14,30,15.60
2018,09,18,14,31,15.60
2018,09,18,14,32,15.70
2018,09,18,14,33,15.70
2018,09,18,14,34,15.70
2018,09,18,14,35,15.70
2018,09,18,14,36,15.70
2018,09,18,14,37,15.70
2018,09,18,14,38,15.70
2018,09,18,14,39,15.70
2018,09,18,14,40,15.70
2018,09,18,14,41,15.80
2018,09,18,14,42,15.90
2018,09,18,14,43,15.90
2018,09,18,14,44,16.00
2018,09,18,14,45,16.00
2018,09,18,14,46,16.00
2018,09,18,14,47,16.10
2018,09,18,14,48,16.10
2018,09,18,14,49,16.10
2018,09,18,14,50,16.10
2018,09,18,14,51,16.10
2018,09,18,14,52,16.10
2018,09,18,14,53,16.10
2018,09,18,14,54,16.10
2018,09,18,14,55,16.00
2018,09,18,14,56,15.80
2018,09,18,14,57,15.70
2018,09,18,14,58,15.70
2018,09,18,14,59,15.60
2018,09,18,15,00,15.60
2018,09,18,15,01,15.60
2018,09,18,15,02,15.60
2018,09,18,15,03,15.70
2018,09,18,15,04,15.70
2018,09,18,15,05,15.80
2018,09,18,15,06,15.70
2018,09,18,15,07,15.70
2018,09,18,15,08,15.70
2018,09,18,15,09,15.70
2018,09,18,15,10,15.60
2018,09,18,15,11,15.60
2018,09,18,15,12,15.60
2018,09,18,15,13,15.60
2018,09,18,15,14,15.60
2018,09,18,15,15,15.60
2018,09,18,15,16,15.60
2018,09,18,15,17,15.60
2018,09,18,15,18,15.60
2018,09,18,15,19,15.70
2018,09,18,15,20,15.70
2018,09,18,15,21,15.70
2018,09,18,15,22,15.70
2018,09,18,15,23,15.70
2018,09,18,15,24,15.70
2018,09,18,15,25,15.70
2018,09,18,15,26,15.70
2018,09,18,15,27,15.70
2018,09,18,15,28,15.70
2018,09,18,15,29,15.80
2018,09,18,15,30,15.80
2018,09,18,15,31,15.90
2018,09,18,15,32,15.90
2018,09,18,15,33,15.90
2018,09,18,15,34,15.90
2018,09,18,15,35,16.00
2018,09,18,15,36,16.00
2018,09,18,15,37,16.00
2018,09,18,15,38,16.10
2018,09,18,15,39,16.10
2018,09,18,15,40,16.20
2018,09,18,15,41,16.20
2018,09,18,15,42,16.20
2018,09,18,15,43,16.20
2018,09,18,15,44,16.20
2018,09,18,15,45,16.20
2018,09,18,15,46,16.30
2018,09,18,15,47,16.30
2018,09,18,15,48,16.30
2018,09,18,15,49,16.30
2018,09,18,15,50,16.30
2018,09,18,15,51,16.30
2018,09,18,15,52,16.30
2018,09,18,15,53,16.40
2018,09,18,15,54,16.40
2018,09,18,15,55,16.40
2018,09,18,15,56,16.40
2018,09,18,15,57,16.40
2018,09,18,15,58,16.40
2018,09,18,15,59,16.40
2018,09,18,16,00,16.30
2018,09,18,16,01,16.30
2018,09,18,16,02,16.30
2018,09,18,16,03,16.30
2018,09,18,16,04,16.30
2018,09,18,16,05,16.40
2018,09,18,16,06,16.40
2018,09,18,16,07,16.40
2018,09,18,16,08,16.40
2018,09,18,16,09,16.40
2018,09,18,16,10,16.40
2018,09,18,16,11,16.40
2018,09,18,16,12,16.40
2018,09,18,16,13,16.40
2018,09,18,16,14,16.40
2018,09,18,16,15,16.40
2018,09,18,16,16,16.40
2018,09,18,16,17,16.30
2018,09,18,16,18,16.30
2018,09,18,16,19,16.30
2018,09,18,16,20,16.30
2018,09,18,16,21,16.30
2018,09,18,16,22,16.30
2018,09,18,16,23,16.30
2018,09,18,16,24,16.20
2018,09,18,16,25,16.20
2018,09,18,16,26,16.20
2018,09,18,16,27,16.20
2018,09,18,16,28,16.20
2018,09,18,16,29,16.20
2018,09,18,16,30,16.30
2018,09,18,16,31,16.30
2018,09,18,16,32,16.30
2018,09,18,16,33,16.30
2018,09,18,16,34,16.40
2018,09,18,16,35,16.40
2018,09,18,16,36,16.40
2018,09,18,16,37,16.50
2018,09,18,16,38,16.50
2018,09,18,16,39,16.50
2018,09,18,16,40,16.50
2018,09,18,16,41,16.60
2018,09,18,16,42,16.60
2018,09,18,16,43,16.60
2018,09,18,16,44,16.70
2018,09,18,16,45,16.80
2018,09,18,16,46,16.90
2018,09,18,16,47,17.00
2018,09,18,16,48,17.10
2018,09,18,16,49,17.10
2018,09,18,16,50,17.10
2018,09,18,16,51,17.10
2018,09,18,16,52,17.10
2018,09,18,16,53,17.10
2018,09,18,16,54,17.10
2018,09,18,16,55,17.10
2018,09,18,16,56,17.10
2018,09,18,16,57,17.10
2018,09,18,16,58,17.10
2018,09,18,16,59,17.20
2018,09,18,17,00,17.20
2018,09,18,17,01,17.30
2018,09,18,17,02,17.30
2018,09,18,17,03,17.30
2018,09,18,17,04,17.40
2018,09,18,17,05,17.40
2018,09,18,17,06,17.40
2018,09,18,17,07,17.40
2018,09,18,17,08,17.40
2018,09,18,17,09,17.50
2018,09,18,17,10,17.50
2018,09,18,17,11,17.50
2018,09,18,17,12,17.60
2018,09,18,17,13,17.50
2018,09,18,17,14,17.50
2018,09,18,17,15,17.40
2018,09,18,17,16,17.30
2018,09,18,17,17,17.30
2018,09,18,17,18,17.20
2018,09,18,17,19,17.20
2018,09,18,17,20,17.10
2018,09,18,17,21,17.10
2018,09,18,17,22,17.10
2018,09,18,17,23,17.10
2018,09,18,17,24,17.00
2018,09,18,17,25,17.00
2018,09,18,17,26,17.00
2018,09,18,17,27,17.00
2018,09,18,17,28,16.90
2018,09,18,17,29,16.90
2018,09,18,17,30,16.80
2018,09,18,17,31,16.80
2018,09,18,17,32,16.70
2018,09,18,17,33,16.70
2018,09,18,17,34,16.70
2018,09,18,17,35,16.70
2018,09,18,17,36,16.70
2018,09,18,17,37,16.70
2018,09,18,17,38,16.70
2018,09,18,17,39,16.70
2018,09,18,17,40,16.70
2018,09,18,17,41,16.70
2018,09,18,17,42,16.70
2018,09,18,17,43,16.60
2018,09,18,17,44,16.60